Location: Beekmeers
(50.8953°N, 3.6968°E)
Time: 01:45:16
(UTC+00:00)

Cosmos 1703 Rocket - Pass Details

Date: 23 May 2024
Orbit: 602 x 629 km, 82.5° (Epoch: 16 June)

Event Time Altitude Azimuth Distance (km) Brightness Sun altitude
Exits shadow 00:58:58 22° 158° (SSE) 1,355 4.9 -16.5°
Maximum altitude 01:01:29 48° 94° (E) 821 4.2 -16.4°
Drops below altitude 10° 01:05:47 10° 20° (NNE) 2,016 7.6 -16.1°
Sets 01:08:05 0° 15° (NNE) 2,931 8.8 -16.0°
